Language: 


Des rapports , des résumés tant et plus, au choix de chacun....


Données Historiques de Météogheer
Journalier Rapport pour Février 22, 2018 Unitée:  Impériale    Métrique   Les deux
Suivant Jour »
Journalier Hebdomadaire Mensuel Annuel Sur mesure
  Max: Min: Moyenne:
Température: 43.5 °F 28.6 °F 34.9 °F
Point de rosée: 30.2 °F 23 °F 25.3 °F
Humidité: 89% 43% 71%
Vent: 18.6mph 2mph 8mph
Rafales: 19.5mph - -
Vent- - NE
Pression: 30.2 in 30.1 in -
Pluie: 0 in    
Historical Graphs
 
 
Données tabulaires pour Février 22, 2018
Heure Température Point de rosée Pression Vent Vent Rafales Humidité Pluie Taux (Horaire) Conditions
00:04 32.7 °F 30.2 °F 30.2 in NE 7.8 mph 8.1 mph 88% 0 in
00:09 32.7 °F 30.2 °F 30.2 in NE 7.6 mph 7.8 mph 88% 0 in
00:14 32.7 °F 30.2 °F 30.2 in NE 5.6 mph 7.8 mph 88% 0 in
00:19 32.5 °F 30.2 °F 30.2 in NNE 8.1 mph 8.1 mph 88% 0 in
00:24 32.5 °F 30.2 °F 30.2 in NE 6 mph 8.1 mph 88% 0 in
00:29 32.4 °F 30.2 °F 30.2 in NNE 6.5 mph 8.7 mph 88% 0 in
00:34 32.2 °F 30.2 °F 30.2 in NNE 7.2 mph 8.7 mph 88% 0 in
00:39 32.2 °F 30.2 °F 30.2 in NNE 7.2 mph 7.2 mph 88% 0 in
00:44 32 °F 26.6 °F 30.2 in NNE 5.8 mph 8.1 mph 88% 0 in
00:49 31.8 °F 26.6 °F 30.2 in NE 5.6 mph 8.1 mph 88% 0 in
00:54 31.8 °F 26.6 °F 30.2 in NNE 6.3 mph 7.8 mph 88% 0 in
00:59 31.6 °F 26.6 °F 30.2 in NNE 6.5 mph 8.5 mph 88% 0 in
01:04 31.6 °F 26.6 °F 30.2 in NE 4.3 mph 8.5 mph 88% 0 in
01:09 31.5 °F 26.6 °F 30.2 in NNE 7.8 mph 8.1 mph 89% 0 in
01:14 31.5 °F 26.6 °F 30.2 in NNE 2 mph 9.2 mph 89% 0 in
01:19 31.5 °F 26.6 °F 30.2 in NE 8.5 mph 9.2 mph 89% 0 in
01:24 31.5 °F 26.6 °F 30.2 in NNE 5.8 mph 8.5 mph 89% 0 in
01:29 31.3 °F 26.6 °F 30.2 in NNE 7.8 mph 8.5 mph 89% 0 in
01:34 31.3 °F 26.6 °F 30.2 in NE 6 mph 8.5 mph 89% 0 in
01:40 31.3 °F 26.6 °F 30.2 in NNE 8.1 mph 8.5 mph 89% 0 in
01:45 31.3 °F 26.6 °F 30.2 in NE 5.8 mph 8.1 mph 89% 0 in
01:50 31.1 °F 26.6 °F 30.2 in NE 4.3 mph 8.1 mph 89% 0 in
01:55 31.1 °F 26.6 °F 30.2 in NNE 5.6 mph 7.4 mph 89% 0 in
02:00 31.1 °F 26.6 °F 30.2 in NNE 5.6 mph 5.6 mph 89% 0 in
02:05 31.1 °F 26.6 °F 30.2 in NNE 6.5 mph 6.5 mph 89% 0 in
02:10 30.9 °F 26.6 °F 30.2 in NNE 5.4 mph 6.5 mph 89% 0 in
02:15 30.9 °F 26.6 °F 30.2 in NNE 5.4 mph 6.5 mph 89% 0 in
02:20 30.7 °F 26.6 °F 30.2 in NE 6 mph 6 mph 89% 0 in
02:25 30.7 °F 26.6 °F 30.2 in NNE 7.4 mph 7.4 mph 89% 0 in
02:30 30.6 °F 26.6 °F 30.2 in NE 4.3 mph 7.4 mph 89% 0 in
02:35 30.6 °F 26.6 °F 30.2 in NE 4.3 mph 7.4 mph 89% 0 in
02:40 30.6 °F 26.6 °F 30.2 in NE 4.3 mph 4.3 mph 89% 0 in
02:45 30.6 °F 26.6 °F 30.2 in NE 4.3 mph 4.3 mph 89% 0 in
02:50 30.6 °F 26.6 °F 30.2 in NE 4.3 mph 4.3 mph 89% 0 in
02:55 30.4 °F 26.6 °F 30.2 in NNE 6 mph 6 mph 89% 0 in
03:00 30.4 °F 26.6 °F 30.2 in NNE 6 mph 6 mph 89% 0 in
03:05 30.2 °F 26.6 °F 30.2 in NNE 6 mph 6 mph 89% 0 in
03:10 30.2 °F 26.6 °F 30.2 in NE 5.4 mph 6.3 mph 89% 0 in
03:15 30.2 °F 26.6 °F 30.2 in NNE 6 mph 6.3 mph 89% 0 in
03:20 30.2 °F 26.6 °F 30.2 in NE 6 mph 6 mph 89% 0 in
03:25 30.2 °F 26.6 °F 30.2 in ENE 6.5 mph 7.6 mph 89% 0 in
03:30 30.2 °F 26.6 °F 30.2 in NNE 6.3 mph 7.6 mph 89% 0 in
03:35 30 °F 26.6 °F 30.2 in NNE 5.8 mph 7.2 mph 89% 0 in
03:40 30 °F 26.6 °F 30.2 in NNE 5.8 mph 6.3 mph 89% 0 in
03:45 29.8 °F 26.6 °F 30.2 in NNE 5.8 mph 5.8 mph 89% 0 in
03:50 29.8 °F 26.6 °F 30.2 in NE 6 mph 6 mph 89% 0 in
03:55 29.7 °F 26.6 °F 30.2 in NE 6 mph 6 mph 89% 0 in
04:00 29.7 °F 26.6 °F 30.2 in NE 6 mph 6 mph 89% 0 in
04:05 29.7 °F 26.6 °F 30.2 in NE 4.3 mph 6 mph 89% 0 in
04:10 29.7 °F 26.6 °F 30.2 in NNE 4.9 mph 4.9 mph 89% 0 in
04:15 29.5 °F 26.6 °F 30.2 in NNE 6 mph 6 mph 89% 0 in
04:20 29.5 °F 26.6 °F 30.2 in NE 5.8 mph 6 mph 89% 0 in
04:25 29.5 °F 26.6 °F 30.2 in NE 5.8 mph 6 mph 89% 0 in
04:30 29.5 °F 26.6 °F 30.2 in NE 5.8 mph 5.8 mph 89% 0 in
04:36 29.5 °F 26.6 °F 30.2 in NNE 5.8 mph 5.8 mph 89% 0 in
04:41 29.5 °F 26.6 °F 30.2 in NE 7.8 mph 7.8 mph 89% 0 in
04:46 29.3 °F 24.8 °F 30.2 in ENE 7.2 mph 8.7 mph 89% 0 in
04:51 29.3 °F 24.8 °F 30.2 in ENE 7.2 mph 8.7 mph 89% 0 in
04:56 29.3 °F 24.8 °F 30.2 in ENE 7.2 mph 8.7 mph 89% 0 in
05:01 29.3 °F 24.8 °F 30.2 in ENE 7.2 mph 7.2 mph 89% 0 in
05:06 29.3 °F 24.8 °F 30.2 in NE 6.3 mph 7.2 mph 89% 0 in
05:11 29.3 °F 24.8 °F 30.2 in NE 6.3 mph 7.2 mph 89% 0 in
05:16 29.1 °F 24.8 °F 30.2 in NE 6.3 mph 6.3 mph 89% 0 in
05:21 29.1 °F 24.8 °F 30.2 in NE 6.3 mph 6.3 mph 89% 0 in
05:26 29.1 °F 24.8 °F 30.2 in NE 6.3 mph 6.3 mph 89% 0 in
05:31 29.1 °F 24.8 °F 30.2 in NE 6.3 mph 6.3 mph 89% 0 in
05:36 29.1 °F 24.8 °F 30.2 in NE 6.3 mph 6.3 mph 89% 0 in
05:41 29.1 °F 24.8 °F 30.2 in NE 6.3 mph 6.3 mph 89% 0 in
05:46 29.1 °F 24.8 °F 30.1 in NE 6.3 mph 6.3 mph 89% 0 in
05:51 29.1 °F 24.8 °F 30.1 in NE 6.3 mph 6.3 mph 89% 0 in
05:56 29.1 °F 24.8 °F 30.1 in NE 6.3 mph 6.3 mph 89% 0 in
06:01 28.9 °F 24.8 °F 30.2 in NE 6.3 mph 6.3 mph 89% 0 in
06:06 28.9 °F 24.8 °F 30.2 in NE 6.3 mph 6.3 mph 89% 0 in
06:11 28.9 °F 24.8 °F 30.2 in NE 6.3 mph 6.3 mph 89% 0 in
06:16 28.9 °F 24.8 °F 30.2 in NE 8.7 mph 8.7 mph 88% 0 in
06:21 28.9 °F 24.8 °F 30.2 in NE 7.6 mph 8.7 mph 88% 0 in
06:26 29.1 °F 24.8 °F 30.2 in NE 7.4 mph 8.7 mph 89% 0 in
06:31 29.1 °F 24.8 °F 30.2 in NE 7.4 mph 7.6 mph 88% 0 in
06:36 29.1 °F 24.8 °F 30.2 in NE 7.4 mph 7.4 mph 88% 0 in
06:42 28.9 °F 24.8 °F 30.2 in NE 7.4 mph 7.4 mph 88% 0 in
06:47 28.9 °F 24.8 °F 30.2 in NE 7.4 mph 7.4 mph 88% 0 in
06:52 28.9 °F 24.8 °F 30.2 in NE 7.4 mph 7.4 mph 89% 0 in
06:57 28.9 °F 24.8 °F 30.2 in NE 7.4 mph 7.4 mph 89% 0 in
07:02 28.9 °F 24.8 °F 30.2 in NE 7.4 mph 7.4 mph 89% 0 in
07:07 28.9 °F 24.8 °F 30.2 in NE 7.4 mph 7.4 mph 88% 0 in
07:12 28.8 °F 24.8 °F 30.2 in NE 7.4 mph 7.4 mph 88% 0 in
07:17 28.8 °F 24.8 °F 30.2 in NE 7.4 mph 7.4 mph 88% 0 in
07:22 28.8 °F 24.8 °F 30.2 in NNE 6 mph 6 mph 88% 0 in
07:27 28.8 °F 24.8 °F 30.2 in NNE 6 mph 6 mph 89% 0 in
07:32 28.6 °F 24.8 °F 30.2 in NNE 6 mph 6 mph 88% 0 in
07:37 28.6 °F 24.8 °F 30.2 in NNE 6 mph 6 mph 88% 0 in
07:42 28.6 °F 24.8 °F 30.2 in NNE 6 mph 6 mph 88% 0 in
07:47 28.6 °F 24.8 °F 30.2 in NE 5.4 mph 5.4 mph 88% 0 in
07:52 28.6 °F 24.8 °F 30.2 in NE 6.5 mph 9.2 mph 88% 0 in
07:57 28.6 °F 24.8 °F 30.2 in NE 6.5 mph 9.2 mph 88% 0 in
08:02 28.6 °F 24.8 °F 30.2 in NE 5.8 mph 6.5 mph 88% 0 in
08:07 28.6 °F 24.8 °F 30.2 in NE 6.3 mph 6.5 mph 88% 0 in
08:12 28.6 °F 24.8 °F 30.2 in NE 6.9 mph 9.6 mph 88% 0 in
08:17 28.8 °F 24.8 °F 30.2 in NNE 4.3 mph 9.6 mph 88% 0 in
08:22 28.8 °F 24.8 °F 30.2 in NNE 4.3 mph 6.9 mph 88% 0 in
08:27 28.9 °F 24.8 °F 30.2 in NNE 8.1 mph 8.1 mph 88% 0 in
08:32 29.1 °F 24.8 °F 30.2 in NNE 5.6 mph 8.1 mph 88% 0 in
08:38 29.3 °F 24.8 °F 30.2 in NNE 6.5 mph 8.1 mph 88% 0 in
08:43 29.5 °F 24.8 °F 30.2 in NNE 7.6 mph 8.1 mph 88% 0 in
08:48 29.8 °F 24.8 °F 30.2 in North 7.2 mph 7.6 mph 88% 0 in
08:53 30 °F 26.6 °F 30.2 in NE 5.4 mph 8.7 mph 88% 0 in
08:58 30.2 °F 26.6 °F 30.2 in NE 7.8 mph 8.7 mph 87% 0 in
09:03 30.6 °F 24.8 °F 30.2 in ENE 6 mph 8.5 mph 86% 0 in
09:08 30.7 °F 26.6 °F 30.2 in NNE 7.6 mph 8.5 mph 86% 0 in
09:13 31.1 °F 26.6 °F 30.2 in NE 5.6 mph 7.8 mph 85% 0 in
09:18 31.5 °F 26.6 °F 30.2 in ENE 7.2 mph 7.6 mph 85% 0 in
09:23 31.6 °F 26.6 °F 30.2 in East 6.5 mph 8.5 mph 84% 0 in
09:28 31.8 °F 26.6 °F 30.2 in ENE 7.8 mph 9.2 mph 83% 0 in
09:33 32.2 °F 28.4 °F 30.2 in ENE 10.1 mph 10.1 mph 82% 0 in
09:38 32.2 °F 26.6 °F 30.2 in NE 6.7 mph 10.7 mph 81% 0 in
09:43 32.5 °F 28.4 °F 30.2 in NE 8.5 mph 10.7 mph 80% 0 in
09:48 32.7 °F 26.6 °F 30.2 in East 7.8 mph 10.1 mph 79% 0 in
09:53 32.9 °F 28.4 °F 30.2 in NE 7.8 mph 10.1 mph 79% 0 in
09:58 33.3 °F 26.6 °F 30.2 in NE 6 mph 10.1 mph 78% 0 in
10:04 33.4 °F 28.4 °F 30.2 in ENE 8.1 mph 10.1 mph 78% 0 in
10:09 33.6 °F 28.4 °F 30.2 in NE 7.6 mph 9.6 mph 77% 0 in
10:14 34 °F 26.6 °F 30.2 in ENE 7.6 mph 9.6 mph 76% 0 in
10:19 34.2 °F 26.6 °F 30.2 in ENE 8.1 mph 8.7 mph 74% 0 in
10:24 34.5 °F 26.6 °F 30.2 in ENE 6.3 mph 10.1 mph 74% 0 in
10:29 34.7 °F 28.4 °F 30.2 in NNE 7.6 mph 12.3 mph 74% 0 in
10:34 35.1 °F 26.6 °F 30.2 in NE 7.4 mph 12.3 mph 73% 0 in
10:39 35.2 °F 26.6 °F 30.2 in NE 6.5 mph 9.6 mph 72% 0 in
10:44 35.4 °F 26.6 °F 30.2 in NE 8.7 mph 13 mph 70% 0 in
10:49 35.6 °F 26.6 °F 30.2 in NE 5.6 mph 13 mph 69% 0 in
10:54 36 °F 26.6 °F 30.2 in ENE 4.3 mph 10.3 mph 70% 0 in
10:59 36.3 °F 26.6 °F 30.2 in ENE 7.6 mph 9.8 mph 69% 0 in
11:05 36.3 °F 26.6 °F 30.2 in ENE 9.6 mph 12.3 mph 67% 0 in
11:10 36.5 °F 26.6 °F 30.2 in ENE 9.8 mph 13 mph 66% 0 in
11:15 36.7 °F 26.6 °F 30.2 in ENE 14.8 mph 14.8 mph 67% 0 in
11:20 36.9 °F 26.6 °F 30.2 in NE 8.7 mph 14.8 mph 66% 0 in
11:25 37 °F 26.6 °F 30.2 in ENE 8.5 mph 14.8 mph 65% 0 in
11:30 37.4 °F 26.6 °F 30.2 in NE 7.4 mph 10.5 mph 63% 0 in
11:35 37.4 °F 26.6 °F 30.2 in ENE 7.6 mph 14.8 mph 62% 0 in
11:40 37.6 °F 26.6 °F 30.2 in ENE 8.1 mph 14.8 mph 62% 0 in
11:45 37.8 °F 26.6 °F 30.2 in ENE 10.1 mph 13 mph 60% 0 in
11:50 38.1 °F 26.6 °F 30.2 in ENE 7.8 mph 13.2 mph 61% 0 in
11:55 38.5 °F 26.6 °F 30.2 in NNE 7.6 mph 13.2 mph 59% 0 in
12:00 38.7 °F 24.8 °F 30.2 in East 6.3 mph 14.3 mph 58% 0 in
12:05 38.8 °F 24.8 °F 30.2 in East 8.5 mph 14.3 mph 58% 0 in
12:10 39.2 °F 26.6 °F 30.2 in ESE 8.1 mph 10.5 mph 58% 0 in
12:15 39.4 °F 24.8 °F 30.2 in East 12.5 mph 13.6 mph 56% 0 in
12:20 39.7 °F 26.6 °F 30.2 in East 6 mph 13.6 mph 57% 0 in
12:25 39.9 °F 24.8 °F 30.2 in East 7.6 mph 12.5 mph 55% 0 in
12:30 40.1 °F 24.8 °F 30.2 in East 8.5 mph 12.3 mph 55% 0 in
12:35 40.5 °F 24.8 °F 30.2 in ESE 9.8 mph 12.1 mph 55% 0 in
12:40 40.6 °F 24.8 °F 30.2 in East 7.8 mph 12.8 mph 53% 0 in
12:45 40.8 °F 24.8 °F 30.2 in ENE 7.6 mph 12.8 mph 53% 0 in
12:50 41 °F 24.8 °F 30.2 in NNE 8.5 mph 10.7 mph 52% 0 in
12:55 41.4 °F 24.8 °F 30.2 in ENE 7.4 mph 12.3 mph 52% 0 in
13:00 41.5 °F 26.6 °F 30.2 in East 7.8 mph 12.3 mph 52% 0 in
13:05 41.7 °F 24.8 °F 30.2 in East 8.5 mph 17.2 mph 50% 0 in
13:10 41.7 °F 24.8 °F 30.2 in East 5.6 mph 17.2 mph 50% 0 in
13:15 42.3 °F 24.8 °F 30.2 in East 10.7 mph 11 mph 50% 0 in
13:20 42.3 °F 24.8 °F 30.2 in ENE 7.2 mph 11 mph 50% 0 in
13:25 42.3 °F 24.8 °F 30.2 in East 7.8 mph 12.1 mph 49% 0 in
13:30 42.4 °F 24.8 °F 30.2 in East 9.8 mph 12.1 mph 49% 0 in
13:35 42.6 °F 24.8 °F 30.2 in ENE 10.1 mph 10.7 mph 48% 0 in
13:40 42.8 °F 24.8 °F 30.2 in East 8.7 mph 12.5 mph 48% 0 in
13:45 42.6 °F 24.8 °F 30.2 in ENE 8.7 mph 13 mph 47% 0 in
13:51 42.8 °F 24.8 °F 30.2 in ESE 9.2 mph 13 mph 47% 0 in
13:56 43 °F 24.8 °F 30.2 in East 7.8 mph 11.2 mph 47% 0 in
14:01 43.3 °F 24.8 °F 30.2 in East 6.3 mph 13 mph 47% 0 in
14:06 43.3 °F 24.8 °F 30.2 in ENE 7.6 mph 13 mph 47% 0 in
14:11 43 °F 23 °F 30.2 in ENE 13.2 mph 17.4 mph 45% 0 in
14:16 43.2 °F 23 °F 30.2 in ESE 6.3 mph 17.4 mph 45% 0 in
14:21 43.3 °F 24.8 °F 30.2 in NE 10.1 mph 13 mph 46% 0 in
14:26 43.2 °F 23 °F 30.2 in NE 13.6 mph 19.2 mph 45% 0 in
14:31 43 °F 23 °F 30.1 in East 13.2 mph 19.5 mph 44% 0 in
14:36 43 °F 23 °F 30.1 in NNE 12.5 mph 19.5 mph 45% 0 in
14:41 43 °F 23 °F 30.1 in ENE 12.3 mph 15.7 mph 45% 0 in
14:46 42.8 °F 23 °F 30.2 in ENE 10.5 mph 13.2 mph 45% 0 in
14:51 43.2 °F 23 °F 30.2 in ENE 8.7 mph 13.2 mph 45% 0 in
14:56 43.2 °F 23 °F 30.2 in ENE 10.1 mph 12.8 mph 45% 0 in
15:01 43.3 °F 23 °F 30.2 in NE 9.2 mph 12.3 mph 45% 0 in
15:06 43.3 °F 24.8 °F 30.2 in NNE 11.2 mph 13 mph 46% 0 in
15:11 43.3 °F 23 °F 30.2 in NE 13 mph 15.4 mph 44% 0 in
15:16 43.2 °F 23 °F 30.2 in East 10.3 mph 15.4 mph 44% 0 in
15:21 43.2 °F 23 °F 30.2 in NE 10.5 mph 15.2 mph 44% 0 in
15:26 43.2 °F 23 °F 30.2 in ENE 8.1 mph 15.2 mph 44% 0 in
15:31 43.5 °F 23 °F 30.2 in ENE 10.7 mph 12.5 mph 45% 0 in
15:36 43.5 °F 23 °F 30.2 in NE 10.1 mph 13.2 mph 45% 0 in
15:42 43.3 °F 23 °F 30.2 in ENE 12.5 mph 19.5 mph 43% 0 in
15:47 43.3 °F 23 °F 30.1 in ENE 6.3 mph 19.5 mph 44% 0 in
15:52 43.5 °F 23 °F 30.1 in ENE 8.7 mph 15.2 mph 44% 0 in
15:57 43.5 °F 23 °F 30.1 in ENE 15.4 mph 17.7 mph 44% 0 in
16:02 43.2 °F 23 °F 30.1 in ENE 10.7 mph 17.7 mph 43% 0 in
16:07 43 °F 23 °F 30.1 in NE 8.7 mph 15.2 mph 44% 0 in
16:12 43 °F 23 °F 30.1 in NE 8.5 mph 15.2 mph 45% 0 in
16:17 42.6 °F 23 °F 30.1 in NNE 18.6 mph 18.6 mph 44% 0 in
16:22 42.4 °F 23 °F 30.1 in NE 10.7 mph 18.6 mph 45% 0 in
16:27 42.4 °F 23 °F 30.1 in NE 14.3 mph 19.5 mph 45% 0 in
16:32 42.3 °F 23 °F 30.1 in NE 9.8 mph 19.5 mph 45% 0 in
16:37 42.1 °F 23 °F 30.1 in NE 10.3 mph 17.4 mph 47% 0 in
16:42 41.7 °F 23 °F 30.1 in NE 13.2 mph 15.9 mph 47% 0 in
16:47 41.5 °F 23 °F 30.1 in NE 12.5 mph 15.9 mph 48% 0 in
16:52 41.5 °F 24.8 °F 30.1 in NE 12.1 mph 16.1 mph 49% 0 in
16:57 41.4 °F 23 °F 30.1 in ENE 10.7 mph 15.2 mph 49% 0 in
17:02 41.2 °F 23 °F 30.1 in NE 12.5 mph 15.4 mph 48% 0 in
17:07 41.2 °F 23 °F 30.1 in NE 11 mph 16.8 mph 48% 0 in
17:12 41 °F 23 °F 30.1 in NE 9.6 mph 16.8 mph 48% 0 in
17:17 40.8 °F 23 °F 30.1 in NNE 11 mph 16.6 mph 49% 0 in
17:23 40.6 °F 23 °F 30.1 in NNE 12.5 mph 18.1 mph 49% 0 in
17:28 40.5 °F 23 °F 30.1 in NE 12.3 mph 18.1 mph 49% 0 in
17:33 40.3 °F 23 °F 30.1 in NE 9.8 mph 16.6 mph 49% 0 in
17:38 40.3 °F 23 °F 30.1 in ENE 8.9 mph 15.7 mph 50% 0 in
17:43 39.9 °F 23 °F 30.1 in NNE 9.6 mph 13 mph 51% 0 in
17:48 39.7 °F 23 °F 30.1 in NNE 9.8 mph 13 mph 51% 0 in
17:53 39.4 °F 23 °F 30.1 in NNE 9.4 mph 12.8 mph 52% 0 in
17:58 38.8 °F 23 °F 30.1 in NE 10.3 mph 12.8 mph 55% 0 in
18:03 38.5 °F 24.8 °F 30.1 in NE 8.5 mph 12.3 mph 57% 0 in
18:08 38.1 °F 24.8 °F 30.1 in NNE 9.2 mph 13.2 mph 58% 0 in
18:13 37.9 °F 24.8 °F 30.1 in NE 8.5 mph 13.2 mph 59% 0 in
18:18 37.8 °F 26.6 °F 30.1 in ENE 10.7 mph 17 mph 60% 0 in
18:23 37.6 °F 24.8 °F 30.1 in NE 12.5 mph 17 mph 61% 0 in
18:28 37.4 °F 26.6 °F 30.1 in NE 10.1 mph 12.8 mph 62% 0 in
18:33 37 °F 26.6 °F 30.1 in NNE 11.2 mph 12.5 mph 63% 0 in
18:38 37 °F 26.6 °F 30.1 in NE 8.5 mph 12.5 mph 63% 0 in
18:43 36.9 °F 26.6 °F 30.1 in NE 7.2 mph 10.5 mph 63% 0 in
18:48 36.7 °F 26.6 °F 30.1 in NE 10.1 mph 13.2 mph 63% 0 in
18:53 36.7 °F 26.6 °F 30.1 in NNE 10.1 mph 13.2 mph 63% 0 in
18:58 36.5 °F 24.8 °F 30.1 in NE 9.2 mph 12.8 mph 62% 0 in
19:03 36.3 °F 24.8 °F 30.1 in NE 7.6 mph 12.8 mph 62% 0 in
19:08 36.3 °F 24.8 °F 30.1 in NE 10.1 mph 12.5 mph 62% 0 in
19:13 36.3 °F 24.8 °F 30.1 in NE 7.4 mph 12.3 mph 62% 0 in
19:18 36.1 °F 24.8 °F 30.1 in NE 7.4 mph 10.5 mph 63% 0 in
19:23 36.1 °F 24.8 °F 30.1 in ENE 12.8 mph 12.8 mph 63% 0 in
19:28 36.1 °F 24.8 °F 30.1 in NE 13 mph 13 mph 62% 0 in
19:33 36.3 °F 24.8 °F 30.1 in NE 7.8 mph 13.2 mph 62% 0 in
19:38 36.3 °F 24.8 °F 30.1 in NNE 8.7 mph 14.3 mph 62% 0 in
19:43 36.1 °F 24.8 °F 30.1 in ENE 7.6 mph 14.3 mph 62% 0 in
19:48 36.1 °F 24.8 °F 30.1 in NE 10.3 mph 14.1 mph 62% 0 in
19:53 36.1 °F 24.8 °F 30.1 in ENE 11 mph 15.4 mph 61% 0 in
19:59 36.1 °F 24.8 °F 30.1 in ENE 9.8 mph 15.4 mph 62% 0 in
20:04 36.1 °F 24.8 °F 30.1 in ENE 8.7 mph 15.2 mph 62% 0 in
20:09 36 °F 24.8 °F 30.1 in NE 9.6 mph 15.2 mph 62% 0 in
20:14 36 °F 24.8 °F 30.1 in ENE 7.8 mph 14.8 mph 62% 0 in
20:19 35.8 °F 24.8 °F 30.1 in NE 8.1 mph 14.8 mph 62% 0 in
20:24 35.8 °F 24.8 °F 30.1 in NE 11 mph 12.5 mph 63% 0 in
20:29 35.6 °F 24.8 °F 30.1 in ENE 10.3 mph 12.5 mph 63% 0 in
20:34 35.4 °F 24.8 °F 30.1 in NE 8.5 mph 11.9 mph 64% 0 in
20:39 35.2 °F 24.8 °F 30.1 in NE 6.5 mph 10.3 mph 65% 0 in
20:44 35.1 °F 24.8 °F 30.1 in NE 6.5 mph 9.8 mph 65% 0 in
20:49 35.1 °F 24.8 °F 30.1 in NE 8.7 mph 9.8 mph 65% 0 in
20:54 35.1 °F 24.8 °F 30.1 in NE 8.1 mph 9.6 mph 66% 0 in
20:59 34.9 °F 24.8 °F 30.1 in NE 3.8 mph 8.7 mph 66% 0 in
21:09 34.3 °F 24.8 °F 30.1 in NE 7.6 mph 8.9 mph 68% 0 in
21:14 34.3 °F 24.8 °F 30.1 in NE 5.8 mph 11.9 mph 68% 0 in
21:19 34.5 °F 24.8 °F 30.1 in NNE 8.9 mph 11.9 mph 69% 0 in
21:24 34.3 °F 24.8 °F 30.1 in North 8.1 mph 12.1 mph 68% 0 in
21:29 34.5 °F 24.8 °F 30.1 in NE 8.7 mph 12.1 mph 68% 0 in
21:34 34.5 °F 24.8 °F 30.1 in East 10.1 mph 13.2 mph 68% 0 in
21:39 34.5 °F 24.8 °F 30.1 in NE 10.5 mph 13.2 mph 67% 0 in
21:44 34.3 °F 24.8 °F 30.2 in NE 8.7 mph 11.9 mph 67% 0 in
21:49 34.3 °F 24.8 °F 30.2 in East 10.1 mph 11 mph 67% 0 in
21:54 34.3 °F 24.8 °F 30.2 in ENE 10.7 mph 11 mph 67% 0 in
21:59 34.3 °F 24.8 °F 30.2 in NE 7.8 mph 11 mph 67% 0 in
22:05 34.3 °F 24.8 °F 30.2 in NE 7.6 mph 11 mph 67% 0 in
22:10 34.3 °F 24.8 °F 30.2 in ENE 8.1 mph 11 mph 66% 0 in
22:15 34.3 °F 24.8 °F 30.2 in ENE 6.3 mph 10.7 mph 66% 0 in
22:20 34.2 °F 24.8 °F 30.2 in NE 8.1 mph 12.1 mph 66% 0 in
22:25 34.2 °F 24.8 °F 30.2 in East 10.1 mph 12.1 mph 66% 0 in
22:30 34.2 °F 24.8 °F 30.2 in NE 8.1 mph 12.1 mph 66% 0 in
22:35 34 °F 23 °F 30.2 in NE 10.7 mph 10.7 mph 66% 0 in
22:40 34 °F 23 °F 30.2 in NE 7.8 mph 10.7 mph 66% 0 in
22:45 34 °F 23 °F 30.2 in ENE 6.3 mph 12.3 mph 66% 0 in
22:50 33.8 °F 23 °F 30.2 in ENE 6.5 mph 12.3 mph 66% 0 in
22:55 33.8 °F 24.8 °F 30.2 in ENE 8.5 mph 11 mph 67% 0 in
23:00 33.6 °F 24.8 °F 30.2 in NE 5.4 mph 12.1 mph 67% 0 in
23:05 33.6 °F 24.8 °F 30.2 in ENE 8.7 mph 12.1 mph 67% 0 in
23:10 33.6 °F 24.8 °F 30.2 in NE 8.1 mph 12.1 mph 67% 0 in
23:15 33.4 °F 24.8 °F 30.2 in ENE 7.4 mph 10.3 mph 67% 0 in
23:20 33.4 °F 24.8 °F 30.2 in ENE 7.4 mph 9.2 mph 67% 0 in
23:25 33.4 °F 24.8 °F 30.2 in ENE 6 mph 7.4 mph 67% 0 in
23:30 33.4 °F 24.8 °F 30.2 in ENE 7.8 mph 12.1 mph 67% 0 in
23:35 33.4 °F 24.8 °F 30.2 in ENE 8.5 mph 12.1 mph 67% 0 in
23:40 33.3 °F 23 °F 30.2 in East 7.8 mph 11.4 mph 67% 0 in
23:45 33.1 °F 24.8 °F 30.2 in ENE 6.5 mph 11.4 mph 68% 0 in
23:50 33.1 °F 24.8 °F 30.2 in NE 6.5 mph 9.8 mph 68% 0 in
23:56 32.9 °F 24.8 °F 30.2 in ENE 4.9 mph 8.9 mph 68% 0 in
Données Historique de Météo Turbie

Mise a jour : 18/06/2018 07:33:12
Généré par Cumulus 1.9.4 (1099)